Helicity
165 178 175 184 198 172 192 203 168 157 147 131 128 114 115 115 113 117 118 122 126 134
184 158 169 166 193 177 192 208 199 195 171 153 153 160 151 136 124 134 133 125 138 161
196 177 182 195 178 173 170 193 204 215 207 197 171 186 189 165 157 163 154 162 172 173
219 205 214 203 174 185 184 191 200 229 234 232 226 213 228 206 209 193 191 193 193 189
234 239 233 218 194 197 197 197 214 224 252 255 264 256 269 253 244 237 227 219 248 246
242 255 246 248 240 236 230 218 227 250 270 301 289 285 248 268 298 276 268 286 296 304
255 241 234 243 251 252 264 267 263 286 301 329 326 319 296 280 282 326 313 329 339 352
138 196 212 230 283 289 303 302 316 317 318 334 344 350 365 363 332 375 379 374 368 351
240 176 198 215 231 269 304 310 340 338 341 385 376 338 375 398 408 386 406 429 462 425
225 233 236 230 229 238 272 320 340 329 352 354 345 348 360 367 394 452 486 544 559 529
239 167 156 177 196 204 220 215 280 307 343 352 344 354 389 412 478 462 455 506 606 709
198 155 126 94 59 57 113 146 214 259 308 326 348 376 393 516 530 551 550 644 504 757
157 123 95 90 82 52 69 75 146 216 251 274 350 378 465 565 616 631 649 672 798 689
148 134 106 96 92 84 86 114 147 177 210 278 345 346 362 502 600 559 602 702 733 788
Wind_Speed
25 24 22 20 18 19 15 13 13 15 12 11 7 3 2 8 13 16 17 17 20 23
30 28 29 27 22 20 18 15 16 16 15 11 9 6 4 4 6 10 13 15 18 22
35 35 35 31 27 25 23 20 18 18 17 15 12 10 9 8 9 8 11 13 14 18
40 40 42 36 33 31 30 26 24 22 21 20 18 15 14 14 12 12 13 15 14 16
48 46 44 44 42 39 37 36 31 28 27 26 24 22 21 20 18 18 18 18 18 19
54 52 51 51 50 48 45 43 40 37 33 32 31 29 27 25 24 23 23 23 22 22
57 56 55 56 55 53 50 50 48 45 43 40 38 36 33 31 28 29 27 27 27 25
73 64 61 60 58 59 57 57 55 53 51 48 45 44 41 38 37 35 33 31 29 27
71 74 71 69 68 66 65 63 60 59 56 54 52 50 48 46 45 42 39 36 33 29
73 75 75 75 75 75 71 65 65 63 60 60 58 55 52 52 51 50 44 40 35 33
77 78 79 81 81 79 76 73 68 66 63 62 61 56 52 52 54 53 52 48 42 36
74 78 81 84 84 82 81 80 72 70 67 65 64 56 53 50 51 55 52 46 47 44
73 73 74 76 79 77 76 79 76 73 70 70 67 58 54 51 51 52 49 44 42 43
77 77 76 75 73 74 74 72 72 73 71 68 64 59 52 51 52 53 52 47 45 39
Wind_Direction
226 223 231 227 235 210 211 204 191 187 181 174 167 163 312 322 322 320 318 317 318 319
241 238 253 259 250 236 234 230 209 204 204 204 204 210 226 275 300 317 318 317 319 320
247 249 256 259 254 252 251 242 235 226 226 227 231 235 242 266 294 293 308 314 315 318
253 254 259 257 260 257 260 254 251 242 240 243 242 250 257 263 269 271 285 298 297 305
259 259 258 261 264 266 261 263 258 256 250 251 250 253 257 258 264 266 270 277 285 291
260 261 260 263 264 266 265 264 264 260 254 254 254 256 258 258 259 263 266 271 274 279
262 263 263 264 265 266 266 265 264 262 261 259 258 258 259 264 265 268 269 271 275 275
269 269 268 266 266 266 266 267 266 265 266 265 264 263 262 263 267 269 272 276 276 274
277 274 271 271 271 271 270 268 267 265 263 263 265 264 260 262 267 270 270 269 277 278
278 278 279 278 275 273 272 270 268 266 265 265 267 267 262 260 269 270 268 269 270 276
280 279 279 279 279 280 281 275 269 268 266 267 267 265 264 261 268 272 274 263 262 265
285 282 281 280 280 280 279 278 277 275 270 268 271 265 263 265 270 273 274 275 263 263
288 287 286 285 284 283 282 279 277 276 276 275 273 267 262 263 270 272 273 275 274 269
289 288 287 287 287 287 285 283 280 279 278 276 276 273 265 263 268 271 268 268 269 271